Westerly, RI

12:18 PM EDT on May 24, 2018 (GMT -0400)
Westerly State

Weather History for KWST - September, 2012

Change the Weather History Date:

Tuesday, September 11, 2012

  Actual Average (KGON) Record (KGON)
Temperature  
Mean Temperature 58 °F -  
Max Temperature 70 °F 75 °F 93 °F (1983)
Min Temperature 48 °F 56 °F 44 °F (1967)
Degree Days  
Heating Degree Days 7    
Growing Degree Days 8 (Base 50)    
Moisture  
Dew Point 47 °F    
Average Humidity 68    
Maximum Humidity 96    
Minimum Humidity 42    
Precipitation  
Precipitation 0.00 in - - ()
Sea Level Pressure  
Sea Level Pressure 30.21 in    
Wind  
Wind Speed 4 mph (WNW)    
Max Wind Speed 12 mph    
Max Gust Speed 17 mph    
Visibility 10 miles    
Events      
Averages and records for this station are not official NWS values.
T = Trace of Precipitation, MM = Missing Value Source: NWS Daily Summary

Daily Weather History Graph

Daily Weather History Graph

Search for Another Location

Airport or City:

Astronomy

Sep. 11, 2012 Rise Set
Actual Time 6:24 AM EDT 7:02 PM EDT
Civil Twilight 5:56 AM EDT 7:30 PM EDT
Nautical Twilight 5:23 AM EDT 8:03 PM EDT
Astronomical Twilight 4:49 AM EDT 8:37 PM EDT
Moon 1:35 AM EDT (9/11) 4:13 PM EDT (9/11)
Length of Visible Light 13h 34m
Length of Day
12h 38m
Waning Crescent, 21% of the Moon is Illuminated
Sep 11
Waning Crescent
Sep 15
New
Sep 22
First Quarter
Sep 29
Full
Oct 8
Last Quarter

Hourly Weather History & Observations

Time (EDT) Temp. Dew Point Humidity Pressure Visibility Wind Dir Wind Speed Gust Speed Precip Events Conditions
12:53 AM 53.1 °F 45.0 °F 74% 30.10 in 10.0 mi NW 3.5 mph - N/A   Clear
1:53 AM 51.1 °F 45.0 °F 80% 30.11 in 10.0 mi Calm Calm - N/A   Clear
2:53 AM 50.0 °F 45.0 °F 83% 30.12 in 10.0 mi NW 3.5 mph - N/A   Clear
3:53 AM 50.0 °F 44.1 °F 80% 30.12 in 10.0 mi Variable 4.6 mph - N/A   Clear
4:53 AM 48.9 °F 44.1 °F 83% 30.14 in 10.0 mi NNW 5.8 mph - N/A   Clear
5:53 AM 48.9 °F 44.1 °F 83% 30.16 in 10.0 mi NNW 5.8 mph - N/A   Clear
6:53 AM 50.0 °F 43.0 °F 77% 30.19 in 10.0 mi NNW 6.9 mph - N/A   Clear
7:53 AM 53.1 °F 44.1 °F 71% 30.22 in 10.0 mi NNW 9.2 mph - N/A   Clear
8:53 AM 57.0 °F 44.1 °F 62% 30.23 in 10.0 mi NNW 6.9 mph - N/A   Clear
9:53 AM 61.0 °F 45.0 °F 56% 30.24 in 10.0 mi North 11.5 mph 17.3 mph N/A   Clear
10:53 AM 63.0 °F 45.0 °F 52% 30.24 in 10.0 mi Variable 3.5 mph - N/A   Clear
11:53 AM 66.0 °F 44.1 °F 45% 30.24 in 10.0 mi Variable 4.6 mph - N/A   Clear
12:53 PM 68.0 °F 44.1 °F 42% 30.23 in 10.0 mi Calm Calm - N/A   Clear
1:53 PM 68.0 °F 46.9 °F 47% 30.22 in 10.0 mi Variable 6.9 mph - N/A   Clear
2:53 PM 68.0 °F 48.0 °F 49% 30.21 in 10.0 mi SSW 9.2 mph - N/A   Clear
3:53 PM 68.0 °F 48.0 °F 49% 30.22 in 10.0 mi SW 8.1 mph - N/A   Clear
4:53 PM 66.9 °F 48.9 °F 52% 30.22 in 10.0 mi SW 9.2 mph - N/A   Clear
5:53 PM 68.0 °F 50.0 °F 52% 30.23 in 10.0 mi WSW 4.6 mph - N/A   Clear
6:53 PM 64.9 °F 51.1 °F 61% 30.24 in 10.0 mi Calm Calm - N/A   Clear
7:53 PM 60.1 °F 53.1 °F 78% 30.25 in 10.0 mi Calm Calm - N/A   Clear
8:53 PM 57.0 °F 54.0 °F 89% 30.27 in 10.0 mi Calm Calm - N/A   Clear
9:53 PM 55.0 °F 52.0 °F 89% 30.28 in 10.0 mi Calm Calm - N/A   Clear
10:53 PM 53.1 °F 51.1 °F 93% 30.29 in 10.0 mi Calm Calm - N/A   Clear
11:53 PM 51.1 °F 50.0 °F 96% 30.29 in 10.0 mi Calm Calm - N/A   Clear